Tracking 18852 objects as of 24-Nov-2017
HD Live streaming from Space Station
objects crossing your sky now

FENGYUN 1C DEB

Track FENGYUN 1C DEB now!
10-day predictions


NORAD ID: 31338
Int'l Code: 1999-025BQS
Perigee: 830.6 km
Apogee: 970.5 km
Inclination: 98.9 °
Period: 102.8 minutes
Semi major axis: 7271 km
RCS: 0.0099 m2 (small)
Launch date: May 10, 1999
Source: People's Republic of China (PRC)
Launch site: Taiyaun Space Center, China (TSC)

Note: This is SATELLITE DEBRIS
aabbcc
Your satellite tracking list
Your tracking list is empty




NASA's NSSDC Master Catalog

Two Line Element Set (TLE):
1 31338U 99025BQS 17327.49343993  .00001252  00000-0  84355-3 0  9995
2 31338  98.8642 208.9080 0096187  82.0364 279.1703 14.00112644542304
Source of the keplerian elements: AFSPC